| time (UTC) | temp F | wind direction | speed MPH | gust MPH | rain 1hr in | rain 24hr in | rain mn in | humidity % | barometer mb |
| 20260509095013 | 54 | 222 | 4.0 | 12.0 | 0.00 | 0.00 | 0.00 | 78 | 1000.5 |
| 20260509094529 | 54 | 234 | 4.0 | 12.0 | 0.00 | 0.00 | 0.00 | 78 | 1000.6 |
| 20260509094016 | 54 | 221 | 4.0 | 11.0 | 0.00 | 0.00 | 0.00 | 78 | 1000.7 |
| 20260509093514 | 54 | 215 | 4.0 | 11.0 | 0.00 | 0.00 | 0.00 | 77 | 1000.6 |
| 20260509093028 | 54 | 223 | 5.0 | 11.0 | 0.00 | 0.00 | 0.00 | 77 | 1000.7 |
| 20260509092514 | 54 | 248 | 4.0 | 10.0 | 0.00 | 0.00 | 0.00 | 77 | 1000.7 |
| 20260509092014 | 54 | 219 | 4.0 | 10.0 | 0.00 | 0.00 | 0.00 | 77 | 1000.7 |
| 20260509091530 | 54 | 234 | 3.0 | 11.0 | 0.00 | 0.00 | 0.00 | 77 | 1000.6 |
| 20260509091014 | 54 | 211 | 5.0 | 11.0 | 0.00 | 0.00 | 0.00 | 77 | 1000.6 |
| 20260509090512 | 54 | 201 | 3.0 | 15.0 | 0.00 | 0.00 | 0.00 | 77 | 1000.7 |
| 20260509090032 | 54 | 177 | 4.0 | 15.0 | 0.00 | 0.00 | 0.00 | 77 | 1000.7 |
| 20260509085514 | 54 | 244 | 5.0 | 15.0 | 0.00 | 0.00 | 0.00 | 77 | 1000.6 |
| 20260509085014 | 54 | 207 | 5.0 | 10.0 | 0.00 | 0.00 | 0.00 | 77 | 1000.7 |
| 20260509084535 | 54 | 246 | 4.0 | 11.0 | 0.00 | 0.00 | 0.00 | 77 | 1000.7 |
| 20260509084016 | 54 | 186 | 5.0 | 12.0 | 0.00 | 0.00 | 0.00 | 78 | 1000.7 |
| 20260509083513 | 54 | 205 | 4.0 | 12.0 | 0.00 | 0.00 | 0.00 | 78 | 1000.7 |
| 20260509083044 | 54 | 246 | 6.0 | 11.0 | 0.00 | 0.00 | 0.00 | 78 | 1000.6 |
| 20260509082513 | 54 | 166 | 4.0 | 10.0 | 0.00 | 0.00 | 0.00 | 78 | 1000.7 |
| 20260509082014 | 54 | 0 | 3.0 | 11.0 | 0.00 | 0.00 | 0.00 | 78 | 1000.8 |
| 20260509081530 | 54 | 174 | 4.0 | 11.0 | 0.00 | 0.00 | 0.00 | 77 | 1000.6 |
| 20260509081014 | 54 | 198 | 3.0 | 12.0 | 0.00 | 0.00 | 0.00 | 77 | 1000.8 |
| 20260509080515 | 54 | 192 | 3.0 | 15.0 | 0.00 | 0.00 | 0.00 | 77 | 1000.7 |
| 20260509080031 | 54 | 196 | 6.0 | 15.0 | 0.00 | 0.00 | 0.00 | 77 | 1000.7 |
| 20260509075521 | 54 | 209 | 5.0 | 11.0 | 0.00 | 0.00 | 0.00 | 77 | 1000.7 |
| 20260509075016 | 53 | 246 | 3.0 | 11.0 | 0.00 | 0.00 | 0.00 | 77 | 1000.8 |
| 20260509074528 | 53 | 153 | 3.0 | 10.0 | 0.00 | 0.00 | 0.00 | 77 | 1000.9 |
| 20260509074014 | 53 | 150 | 5.0 | 11.0 | 0.00 | 0.00 | 0.00 | 77 | 1001.0 |
| 20260509073514 | 53 | 196 | 4.0 | 12.0 | 0.00 | 0.00 | 0.00 | 77 | 1001.0 |
| 20260509073036 | 53 | 185 | 4.0 | 12.0 | 0.00 | 0.00 | 0.00 | 77 | 1001.0 |
| 20260509072514 | 52 | 144 | 3.0 | 11.0 | 0.00 | 0.00 | 0.00 | 76 | 1001.0 |
| 20260509072014 | 52 | 155 | 3.0 | 11.0 | 0.00 | 0.00 | 0.00 | 76 | 1001.0 |
| 20260509071532 | 52 | 167 | 3.0 | 11.0 | 0.00 | 0.00 | 0.00 | 75 | 1001.1 |
| 20260509071018 | 52 | 132 | 2.0 | 8.0 | 0.00 | 0.00 | 0.00 | 75 | 1001.2 |
| 20260509070517 | 52 | 146 | 3.0 | 11.0 | 0.00 | 0.00 | 0.00 | 75 | 1001.2 |
| 20260509070035 | 52 | 153 | 3.0 | 11.0 | 0.00 | 0.00 | 0.00 | 74 | 1001.4 |
| 20260509065514 | 52 | 167 | 3.0 | 9.0 | 0.00 | 0.00 | 0.00 | 74 | 1001.5 |
| 20260509065019 | 52 | 167 | 4.0 | 10.0 | 0.00 | 0.00 | 0.00 | 74 | 1001.6 |
| 20260509064531 | 53 | 209 | 3.0 | 10.0 | 0.00 | 0.00 | 0.00 | 73 | 1001.5 |
| 20260509064017 | 53 | 153 | 3.0 | 9.0 | 0.00 | 0.00 | 0.00 | 73 | 1001.5 |
| 20260509063514 | 53 | 184 | 3.0 | 12.0 | 0.00 | 0.00 | 0.00 | 72 | 1001.6 |
| 20260509063034 | 53 | 205 | 4.0 | 12.0 | 0.00 | 0.00 | 0.00 | 72 | 1001.8 |
| 20260509062513 | 52 | 187 | 3.0 | 12.0 | 0.00 | 0.00 | 0.00 | 72 | 1001.8 |
| 20260509062018 | 52 | 183 | 5.0 | 12.0 | 0.00 | 0.00 | 0.00 | 72 | 1001.9 |
| 20260509061533 | 52 | 207 | 3.0 | 10.0 | 0.00 | 0.00 | 0.00 | 72 | 1002.1 |
| 20260509061012 | 52 | 178 | 5.0 | 12.0 | 0.00 | 0.00 | 0.00 | 72 | 1002.1 |
| 20260509060515 | 52 | 126 | 5.0 | 12.0 | 0.00 | 0.00 | 0.00 | 72 | 1002.1 |
| 20260509060028 | 52 | 152 | 4.0 | 10.0 | 0.00 | 0.00 | 0.00 | 72 | 1002.1 |
| 20260509055516 | 52 | 157 | 3.0 | 10.0 | 0.00 | 0.00 | 0.00 | 72 | 1002.1 |
| 20260509055015 | 52 | 187 | 4.0 | 10.0 | 0.00 | 0.00 | 0.00 | 72 | 1002.3 |
| 20260509054529 | 52 | 194 | 3.0 | 8.0 | 0.00 | 0.00 | 0.00 | 73 | 1002.3 |
| 20260509054014 | 52 | 161 | 3.0 | 8.0 | 0.00 | 0.00 | 0.00 | 73 | 1002.4 |
| 20260509053515 | 52 | 142 | 2.0 | 7.0 | 0.00 | 0.00 | 0.00 | 73 | 1002.4 |
| 20260509053039 | 51 | 152 | 2.0 | 6.0 | 0.00 | 0.00 | 0.00 | 73 | 1002.7 |
| 20260509052515 | 51 | 202 | 0.0 | 6.0 | 0.00 | 0.00 | 0.00 | 74 | 1002.9 |
| 20260509052014 | 51 | 192 | 2.0 | 6.0 | 0.00 | 0.00 | 0.00 | 74 | 1002.9 |
| 20260509051529 | 51 | 165 | 1.0 | 8.0 | 0.00 | 0.00 | 0.00 | 74 | 1003.1 |
| 20260509051014 | 51 | 190 | 3.0 | 8.0 | 0.00 | 0.00 | 0.00 | 74 | 1003.2 |
| 20260509050514 | 51 | 171 | 2.0 | 6.0 | 0.00 | 0.00 | 0.00 | 74 | 1003.1 |
| 20260509050031 | 51 | 165 | 2.0 | 6.0 | 0.00 | 0.00 | 0.00 | 73 | 1003.1 |
| 20260509045517 | 51 | 155 | 2.0 | 6.0 | 0.00 | 0.00 | 0.00 | 73 | 1003.0 |
| 20260509045015 | 51 | 137 | 2.0 | 6.0 | 0.00 | 0.00 | 0.00 | 73 | 1002.9 |
| 20260509044528 | 51 | 140 | 2.0 | 5.0 | 0.00 | 0.00 | 0.00 | 73 | 1002.9 |
| 20260509044014 | 51 | 179 | 2.0 | 5.0 | 0.00 | 0.00 | 0.00 | 73 | 1002.9 |
| 20260509043515 | 51 | 159 | 1.0 | 6.0 | 0.00 | 0.00 | 0.00 | 73 | 1003.2 |
| 20260509043039 | 51 | 136 | 2.0 | 6.0 | 0.00 | 0.00 | 0.00 | 73 | 1003.2 |
| 20260509042515 | 51 | 0 | 1.0 | 6.0 | 0.00 | 0.00 | 0.00 | 73 | 1003.2 |
| 20260509042015 | 51 | 175 | 2.0 | 6.0 | 0.00 | 0.00 | 0.00 | 73 | 1003.1 |
| 20260509041542 | 51 | 159 | 1.0 | 7.0 | 0.00 | 0.00 | 0.00 | 73 | 1003.1 |
| 20260509041017 | 51 | 180 | 2.0 | 7.0 | 0.00 | 0.00 | 0.00 | 72 | 1003.1 |
| 20260509040516 | 51 | 146 | 2.0 | 6.0 | 0.00 | 0.00 | 0.00 | 72 | 1003.1 |
| 20260509040031 | 51 | 196 | 2.0 | 7.0 | 0.00 | 0.00 | 0.00 | 72 | 1003.1 |
| 20260509035514 | 51 | 203 | 3.0 | 7.0 | 0.00 | 0.00 | 0.00 | 72 | 1003.2 |
| 20260509035014 | 51 | 157 | 2.0 | 6.0 | 0.00 | 0.00 | 0.00 | 72 | 1003.2 |
| 20260509034532 | 51 | 144 | 2.0 | 6.0 | 0.00 | 0.00 | 0.00 | 71 | 1003.3 |
| 20260509034014 | 51 | 148 | 2.0 | 9.0 | 0.00 | 0.00 | 0.00 | 71 | 1003.3 |
| 20260509033514 | 51 | 153 | 2.0 | 9.0 | 0.00 | 0.00 | 0.00 | 71 | 1003.4 |
| 20260509033030 | 51 | 191 | 3.0 | 9.0 | 0.00 | 0.00 | 0.00 | 71 | 1003.5 |
| 20260509032515 | 51 | 167 | 2.0 | 9.0 | 0.00 | 0.00 | 0.00 | 70 | 1003.4 |
| 20260509032015 | 52 | 155 | 2.0 | 9.0 | 0.00 | 0.00 | 0.00 | 70 | 1003.6 |
| 20260509031531 | 52 | 129 | 2.0 | 7.0 | 0.00 | 0.00 | 0.00 | 70 | 1003.5 |
| 20260509031012 | 52 | 144 | 3.0 | 6.0 | 0.00 | 0.00 | 0.00 | 69 | 1003.6 |
| 20260509030517 | 52 | 136 | 2.0 | 6.0 | 0.00 | 0.00 | 0.00 | 69 | 1003.6 |
| 20260509030032 | 52 | 157 | 3.0 | 9.0 | 0.00 | 0.00 | 0.00 | 68 | 1003.7 |
| 20260509025515 | 52 | 158 | 3.0 | 9.0 | 0.00 | 0.00 | 0.00 | 68 | 1003.7 |
| 20260509025013 | 52 | 192 | 3.0 | 9.0 | 0.00 | 0.00 | 0.00 | 68 | 1003.8 |
| 20260509024532 | 52 | 128 | 3.0 | 7.0 | 0.00 | 0.00 | 0.00 | 67 | 1003.8 |
| 20260509024015 | 52 | 169 | 2.0 | 7.0 | 0.00 | 0.00 | 0.00 | 66 | 1003.8 |
| 20260509023514 | 52 | 131 | 3.0 | 9.0 | 0.00 | 0.00 | 0.00 | 66 | 1003.8 |
| 20260509023033 | 52 | 161 | 3.0 | 9.0 | 0.00 | 0.00 | 0.00 | 66 | 1003.8 |
| 20260509022515 | 53 | 192 | 4.0 | 9.0 | 0.00 | 0.00 | 0.00 | 65 | 1003.8 |
| 20260509022015 | 53 | 194 | 3.0 | 9.0 | 0.00 | 0.00 | 0.00 | 65 | 1003.9 |
| 20260509021532 | 53 | 140 | 3.0 | 8.0 | 0.00 | 0.00 | 0.00 | 65 | 1003.8 |
| 20260509021014 | 53 | 153 | 4.0 | 8.0 | 0.00 | 0.00 | 0.00 | 64 | 1003.9 |
| 20260509020515 | 53 | 179 | 3.0 | 8.0 | 0.00 | 0.00 | 0.00 | 64 | 1004.0 |
| 20260509020033 | 54 | 147 | 3.0 | 10.0 | 0.00 | 0.00 | 0.00 | 63 | 1004.0 |
| 20260509015514 | 54 | 192 | 3.0 | 10.0 | 0.00 | 0.00 | 0.00 | 63 | 1004.1 |
| 20260509015014 | 54 | 150 | 2.0 | 8.0 | 0.00 | 0.00 | 0.00 | 62 | 1004.1 |
| 20260509014528 | 54 | 141 | 3.0 | 9.0 | 0.00 | 0.00 | 0.00 | 62 | 1004.1 |
| 20260509014015 | 54 | 157 | 3.0 | 9.0 | 0.00 | 0.00 | 0.00 | 62 | 1004.1 |
| 20260509013515 | 54 | 153 | 3.0 | 9.0 | 0.00 | 0.00 | 0.00 | 62 | 1004.0 |
| 20260509013045 | 55 | 181 | 3.0 | 10.0 | 0.00 | 0.00 | 0.00 | 62 | 1004.2 |
| 20260509012514 | 55 | 132 | 3.0 | 10.0 | 0.00 | 0.00 | 0.00 | 61 | 1004.1 |
| 20260509012015 | 55 | 161 | 4.0 | 8.0 | 0.00 | 0.00 | 0.00 | 60 | 1004.2 |
| 20260509011531 | 55 | 123 | 3.0 | 8.0 | 0.00 | 0.00 | 0.00 | 59 | 1004.2 |
| 20260509011013 | 55 | 155 | 2.0 | 9.0 | 0.00 | 0.00 | 0.00 | 58 | 1004.0 |
| 20260509010514 | 56 | 135 | 3.0 | 9.0 | 0.00 | 0.00 | 0.00 | 57 | 1004.2 |
| 20260509010045 | 56 | 175 | 3.0 | 9.0 | 0.00 | 0.00 | 0.00 | 56 | 1004.3 |
| 20260509005515 | 56 | 193 | 3.0 | 8.0 | 0.00 | 0.00 | 0.00 | 54 | 1004.2 |
| 20260509005018 | 56 | 90 | 4.0 | 8.0 | 0.00 | 0.00 | 0.00 | 54 | 1004.3 |
| 20260509004529 | 57 | 117 | 2.0 | 8.0 | 0.00 | 0.00 | 0.00 | 53 | 1004.2 |
| 20260509004014 | 57 | 159 | 3.0 | 8.0 | 0.00 | 0.00 | 0.00 | 52 | 1004.2 |
| 20260509003514 | 57 | 163 | 2.0 | 5.0 | 0.00 | 0.00 | 0.00 | 51 | 1004.2 |
| 20260509003028 | 58 | 145 | 1.0 | 9.0 | 0.00 | 0.00 | 0.00 | 50 | 1004.2 |
| 20260509002513 | 58 | 150 | 4.0 | 9.0 | 0.00 | 0.00 | 0.00 | 49 | 1004.2 |
| 20260509002012 | 58 | 113 | 4.0 | 10.0 | 0.00 | 0.00 | 0.00 | 48 | 1004.2 |
| 20260509001531 | 59 | 170 | 4.0 | 12.0 | 0.00 | 0.00 | 0.00 | 48 | 1004.2 |
| 20260509001013 | 59 | 110 | 6.0 | 12.0 | 0.00 | 0.00 | 0.00 | 46 | 1004.2 |
| 20260509000512 | 59 | 123 | 4.0 | 9.0 | 0.00 | 0.00 | 0.00 | 46 | 1004.3 |
| 20260509000030 | 60 | 125 | 3.0 | 9.0 | 0.00 | 0.00 | 0.00 | 44 | 1004.4 |
| 20260508235513 | 60 | 123 | 3.0 | 9.0 | 0.00 | 0.00 | 0.00 | 42 | 1004.4 |
| 20260508235014 | 60 | 136 | 3.0 | 10.0 | 0.00 | 0.00 | 0.00 | 41 | 1004.4 |
| 20260508234529 | 60 | 148 | 5.0 | 10.0 | 0.00 | 0.00 | 0.00 | 40 | 1004.5 |
| 20260508234015 | 60 | 117 | 4.0 | 10.0 | 0.00 | 0.00 | 0.00 | 40 | 1004.5 |
| 20260508233513 | 60 | 140 | 3.0 | 10.0 | 0.00 | 0.00 | 0.00 | 39 | 1004.5 |
| 20260508233030 | 60 | 109 | 4.0 | 10.0 | 0.00 | 0.00 | 0.00 | 38 | 1004.6 |
| 20260508232514 | 60 | 124 | 4.0 | 9.0 | 0.00 | 0.00 | 0.00 | 37 | 1004.7 |
| 20260508232014 | 60 | 108 | 4.0 | 8.0 | 0.00 | 0.00 | 0.00 | 38 | 1004.6 |
| 20260508231529 | 60 | 152 | 3.0 | 8.0 | 0.00 | 0.00 | 0.00 | 38 | 1004.7 |
| 20260508231014 | 61 | 140 | 3.0 | 9.0 | 0.00 | 0.00 | 0.00 | 37 | 1004.7 |
| 20260508230512 | 62 | 167 | 3.0 | 10.0 | 0.00 | 0.00 | 0.00 | 37 | 1004.7 |
| 20260508230038 | 62 | 121 | 6.0 | 11.0 | 0.00 | 0.00 | 0.00 | 36 | 1004.7 |
| 20260508225515 | 63 | 132 | 6.0 | 12.0 | 0.00 | 0.00 | 0.00 | 35 | 1004.7 |
| 20260508225014 | 63 | 109 | 4.0 | 12.0 | 0.00 | 0.00 | 0.00 | 35 | 1004.7 |
| 20260508224536 | 64 | 121 | 6.0 | 12.0 | 0.00 | 0.00 | 0.00 | 35 | 1004.6 |
| 20260508224014 | 64 | 129 | 8.0 | 12.0 | 0.00 | 0.00 | 0.00 | 33 | 1004.8 |
| 20260508223511 | 65 | 142 | 4.0 | 10.0 | 0.00 | 0.00 | 0.00 | 33 | 1004.7 |
| 20260508223031 | 66 | 159 | 4.0 | 10.0 | 0.00 | 0.00 | 0.00 | 32 | 1004.7 |
| 20260508222514 | 66 | 126 | 5.0 | 10.0 | 0.00 | 0.00 | 0.00 | 31 | 1004.8 |
| 20260508222014 | 66 | 151 | 5.0 | 9.0 | 0.00 | 0.00 | 0.00 | 31 | 1004.9 |
| 20260508221542 | 67 | 173 | 3.0 | 10.0 | 0.00 | 0.00 | 0.00 | 31 | 1004.8 |
| 20260508221014 | 68 | 163 | 6.0 | 13.0 | 0.00 | 0.00 | 0.00 | 28 | 1005.0 |
| 20260508220517 | 69 | 155 | 5.0 | 13.0 | 0.00 | 0.00 | 0.00 | 27 | 1004.8 |
| 20260508220033 | 69 | 236 | 4.0 | 13.0 | 0.00 | 0.00 | 0.00 | 23 | 1004.7 |
| 20260508215517 | 69 | 257 | 6.0 | 13.0 | 0.00 | 0.00 | 0.00 | 23 | 1004.8 |
| 20260508215014 | 69 | 214 | 5.0 | 11.0 | 0.00 | 0.00 | 0.00 | 22 | 1004.9 |
| 20260508214530 | 69 | 258 | 4.0 | 10.0 | 0.00 | 0.00 | 0.00 | 23 | 1004.7 |
| 20260508214015 | 69 | 259 | 4.0 | 10.0 | 0.00 | 0.00 | 0.00 | 22 | 1004.8 |
| 20260508213514 | 69 | 263 | 2.0 | 17.0 | 0.00 | 0.00 | 0.00 | 26 | 1004.8 |
| 20260508213028 | 69 | 275 | 9.0 | 17.0 | 0.00 | 0.00 | 0.00 | 21 | 1004.9 |
| 20260508212514 | 69 | 264 | 3.0 | 13.0 | 0.00 | 0.00 | 0.00 | 23 | 1004.9 |
| 20260508212013 | 69 | 178 | 5.0 | 13.0 | 0.00 | 0.00 | 0.00 | 25 | 1005.0 |
| 20260508211530 | 69 | 295 | 3.0 | 15.0 | 0.00 | 0.00 | 0.00 | 22 | 1004.9 |
| 20260508211012 | 68 | 215 | 8.0 | 15.0 | 0.00 | 0.00 | 0.00 | 22 | 1005.0 |
| 20260508210513 | 68 | 238 | 5.0 | 12.0 | 0.00 | 0.00 | 0.00 | 24 | 1005.0 |
| 20260508210030 | 68 | 225 | 4.0 | 12.0 | 0.00 | 0.00 | 0.00 | 26 | 1005.0 |
| 20260508205512 | 68 | 290 | 4.0 | 15.0 | 0.00 | 0.00 | 0.00 | 26 | 1005.2 |
| 20260508205016 | 68 | 180 | 8.0 | 15.0 | 0.00 | 0.00 | 0.00 | 25 | 1005.3 |
| 20260508204530 | 68 | 266 | 4.0 | 12.0 | 0.00 | 0.00 | 0.00 | 29 | 1005.2 |
| 20260508204013 | 68 | 273 | 4.0 | 13.0 | 0.00 | 0.00 | 0.00 | 25 | 1005.3 |
| 20260508203511 | 68 | 241 | 5.0 | 20.0 | 0.00 | 0.00 | 0.00 | 23 | 1005.4 |
| 20260508203031 | 68 | 224 | 7.0 | 20.0 | 0.00 | 0.00 | 0.00 | 25 | 1005.5 |
| 20260508202512 | 68 | 152 | 4.0 | 12.0 | 0.00 | 0.00 | 0.00 | 25 | 1005.4 |
| 20260508202014 | 68 | 229 | 4.0 | 12.0 | 0.00 | 0.00 | 0.00 | 23 | 1005.6 |
| 20260508201528 | 68 | 213 | 5.0 | 13.0 | 0.00 | 0.00 | 0.00 | 27 | 1005.8 |
| 20260508201014 | 68 | 173 | 5.0 | 13.0 | 0.00 | 0.00 | 0.00 | 25 | 1005.9 |
| 20260508200511 | 68 | 267 | 7.0 | 13.0 | 0.00 | 0.00 | 0.00 | 25 | 1005.9 |
| 20260508200031 | 68 | 257 | 5.0 | 14.0 | 0.00 | 0.00 | 0.00 | 24 | 1006.1 |
| 20260508195513 | 68 | 254 | 7.0 | 14.0 | 0.00 | 0.00 | 0.00 | 24 | 1006.0 |
| 20260508195012 | 68 | 172 | 1.0 | 9.0 | 0.00 | 0.00 | 0.00 | 24 | 1006.1 |
| 20260508194529 | 67 | 127 | 3.0 | 11.0 | 0.00 | 0.00 | 0.00 | 24 | 1006.2 |
| 20260508194014 | 67 | 139 | 5.0 | 11.0 | 0.00 | 0.00 | 0.00 | 26 | 1006.4 |
| 20260508193514 | 67 | 182 | 1.0 | 16.0 | 0.00 | 0.00 | 0.00 | 26 | 1006.5 |
| 20260508193032 | 67 | 249 | 8.0 | 16.0 | 0.00 | 0.00 | 0.00 | 25 | 1006.6 |
| 20260508192513 | 67 | 177 | 8.0 | 14.0 | 0.00 | 0.00 | 0.00 | 25 | 1006.5 |
| 20260508192017 | 67 | 252 | 4.0 | 11.0 | 0.00 | 0.00 | 0.00 | 25 | 1006.4 |
| 20260508191532 | 67 | 202 | 6.0 | 11.0 | 0.00 | 0.00 | 0.00 | 26 | 1006.5 |
| 20260508191011 | 67 | 105 | 3.0 | 15.0 | 0.00 | 0.00 | 0.00 | 27 | 1006.6 |
| 20260508190512 | 66 | 126 | 4.0 | 15.0 | 0.00 | 0.00 | 0.00 | 26 | 1006.7 |
| 20260508190031 | 66 | 200 | 4.0 | 17.0 | 0.00 | 0.00 | 0.00 | 29 | 1006.8 |
| 20260508185518 | 66 | 172 | 8.0 | 17.0 | 0.00 | 0.00 | 0.00 | 26 | 1006.7 |
| 20260508185014 | 66 | 146 | 5.0 | 11.0 | 0.00 | 0.00 | 0.00 | 27 | 1006.8 |
| 20260508184534 | 66 | 165 | 3.0 | 13.0 | 0.00 | 0.00 | 0.00 | 27 | 1006.9 |
| 20260508184015 | 66 | 101 | 5.0 | 16.0 | 0.00 | 0.00 | 0.00 | 25 | 1007.0 |
| 20260508183511 | 66 | 227 | 3.0 | 16.0 | 0.00 | 0.00 | 0.00 | 31 | 1007.2 |
| 20260508183032 | 66 | 209 | 7.0 | 15.0 | 0.00 | 0.00 | 0.00 | 27 | 1007.0 |
| 20260508182514 | 66 | 129 | 3.0 | 10.0 | 0.00 | 0.00 | 0.00 | 30 | 1007.1 |
| 20260508182014 | 66 | 195 | 3.0 | 11.0 | 0.00 | 0.00 | 0.00 | 30 | 1007.2 |
| 20260508181531 | 65 | 161 | 3.0 | 15.0 | 0.00 | 0.00 | 0.00 | 28 | 1007.3 |
| 20260508181013 | 65 | 202 | 6.0 | 15.0 | 0.00 | 0.00 | 0.00 | 30 | 1007.4 |
| 20260508180513 | 64 | 157 | 3.0 | 13.0 | 0.00 | 0.00 | 0.00 | 27 | 1007.4 |
| 20260508180030 | 65 | 233 | 6.0 | 13.0 | 0.00 | 0.00 | 0.00 | 28 | 1007.5 |
| 20260508175513 | 65 | 315 | 2.0 | 10.0 | 0.00 | 0.00 | 0.00 | 27 | 1007.6 |
| 20260508175015 | 65 | 348 | 2.0 | 10.0 | 0.00 | 0.00 | 0.00 | 30 | 1007.6 |
| 20260508174537 | 65 | 255 | 4.0 | 9.0 | 0.00 | 0.00 | 0.00 | 27 | 1007.7 |
| 20260508174016 | 65 | 123 | 4.0 | 9.0 | 0.00 | 0.00 | 0.00 | 29 | 1007.7 |
| 20260508173514 | 64 | 153 | 2.0 | 7.0 | 0.00 | 0.00 | 0.00 | 37 | 1007.8 |
| 20260508173030 | 64 | 207 | 2.0 | 10.0 | 0.00 | 0.00 | 0.00 | 26 | 1007.9 |
| 20260508172513 | 64 | 270 | 2.0 | 10.0 | 0.00 | 0.00 | 0.00 | 30 | 1008.0 |
| 20260508172014 | 64 | 278 | 5.0 | 10.0 | 0.00 | 0.00 | 0.00 | 27 | 1008.2 |
| 20260508171531 | 64 | 46 | 2.0 | 13.0 | 0.00 | 0.00 | 0.00 | 29 | 1008.2 |
| 20260508171013 | 64 | 263 | 5.0 | 13.0 | 0.00 | 0.00 | 0.00 | 29 | 1008.3 |
| 20260508170514 | 63 | 164 | 1.0 | 7.0 | 0.00 | 0.00 | 0.00 | 31 | 1008.4 |
| 20260508170028 | 63 | 133 | 2.0 | 9.0 | 0.00 | 0.00 | 0.00 | 30 | 1008.5 |
| 20260508165511 | 63 | 236 | 5.0 | 9.0 | 0.00 | 0.00 | 0.00 | 30 | 1008.8 |
| 20260508165012 | 63 | 167 | 3.0 | 7.0 | 0.00 | 0.00 | 0.00 | 29 | 1008.7 |
| 20260508164534 | 63 | 127 | 3.0 | 7.0 | 0.00 | 0.00 | 0.00 | 28 | 1008.7 |
| 20260508164012 | 63 | 223 | 2.0 | 10.0 | 0.00 | 0.00 | 0.00 | 30 | 1008.9 |
| 20260508163510 | 63 | 269 | 3.0 | 10.0 | 0.00 | 0.00 | 0.00 | 29 | 1009.0 |
| 20260508163032 | 63 | 320 | 4.0 | 10.0 | 0.00 | 0.00 | 0.00 | 35 | 1009.1 |
| 20260508162514 | 63 | 150 | 2.0 | 8.0 | 0.00 | 0.00 | 0.00 | 30 | 1009.2 |
| 20260508162011 | 63 | 113 | 3.0 | 8.0 | 0.00 | 0.00 | 0.00 | 31 | 1009.2 |
| 20260508161531 | 62 | 189 | 2.0 | 7.0 | 0.00 | 0.00 | 0.00 | 29 | 1009.4 |
| 20260508161014 | 62 | 283 | 3.0 | 11.0 | 0.00 | 0.00 | 0.00 | 31 | 1009.4 |
| 20260508160511 | 62 | 197 | 3.0 | 11.0 | 0.00 | 0.00 | 0.00 | 33 | 1009.4 |
| 20260508160033 | 62 | 180 | 2.0 | 9.0 | 0.00 | 0.00 | 0.00 | 32 | 1009.6 |
| 20260508155514 | 62 | 120 | 5.0 | 9.0 | 0.00 | 0.00 | 0.00 | 34 | 1009.5 |
| 20260508155014 | 62 | 194 | 3.0 | 7.0 | 0.00 | 0.00 | 0.00 | 34 | 1009.5 |
| 20260508154531 | 61 | 169 | 4.0 | 8.0 | 0.00 | 0.00 | 0.00 | 34 | 1009.6 |
| 20260508154013 | 61 | 156 | 3.0 | 8.0 | 0.00 | 0.00 | 0.00 | 37 | 1009.5 |
| 20260508153518 | 61 | 184 | 3.0 | 7.0 | 0.00 | 0.00 | 0.00 | 39 | 1009.6 |
| 20260508153033 | 60 | 163 | 2.0 | 10.0 | 0.00 | 0.00 | 0.00 | 36 | 1009.6 |
| 20260508152512 | 60 | 103 | 3.0 | 10.0 | 0.00 | 0.00 | 0.00 | 37 | 1009.6 |
| 20260508152012 | 60 | 118 | 4.0 | 10.0 | 0.00 | 0.00 | 0.00 | 36 | 1009.7 |
| 20260508151532 | 60 | 201 | 3.0 | 11.0 | 0.00 | 0.00 | 0.00 | 36 | 1009.7 |
| 20260508151013 | 60 | 155 | 3.0 | 11.0 | 0.00 | 0.00 | 0.00 | 40 | 1009.8 |
| 20260508150511 | 59 | 200 | 3.0 | 13.0 | 0.00 | 0.00 | 0.00 | 39 | 1009.7 |
| 20260508150039 | 59 | 221 | 4.0 | 13.0 | 0.00 | 0.00 | 0.00 | 37 | 1009.8 |
| 20260508145517 | 59 | 225 | 4.0 | 9.0 | 0.00 | 0.00 | 0.00 | 41 | 1009.7 |
| 20260508145014 | 58 | 228 | 4.0 | 10.0 | 0.00 | 0.00 | 0.00 | 42 | 1009.7 |
| 20260508144529 | 58 | 155 | 4.0 | 10.0 | 0.00 | 0.00 | 0.00 | 43 | 1009.6 |
| 20260508144013 | 58 | 146 | 3.0 | 11.0 | 0.00 | 0.00 | 0.00 | 43 | 1009.7 |
| 20260508143510 | 58 | 177 | 4.0 | 11.0 | 0.00 | 0.00 | 0.00 | 46 | 1009.7 |
| 20260508143028 | 57 | 133 | 2.0 | 9.0 | 0.00 | 0.00 | 0.00 | 47 | 1009.7 |
| 20260508142511 | 57 | 174 | 4.0 | 9.0 | 0.00 | 0.00 | 0.00 | 49 | 1009.8 |
| 20260508142011 | 57 | 134 | 4.0 | 9.0 | 0.00 | 0.00 | 0.00 | 51 | 1009.8 |
| 20260508141528 | 56 | 167 | 4.0 | 7.0 | 0.00 | 0.00 | 0.00 | 50 | 1009.9 |
| 20260508141013 | 56 | 192 | 3.0 | 7.0 | 0.00 | 0.00 | 0.00 | 53 | 1009.8 |
| 20260508140513 | 56 | 153 | 3.0 | 8.0 | 0.00 | 0.00 | 0.00 | 55 | 1009.8 |
| 20260508140029 | 55 | 186 | 4.0 | 8.0 | 0.00 | 0.00 | 0.00 | 52 | 1010.0 |
| 20260508135512 | 55 | 96 | 3.0 | 8.0 | 0.00 | 0.00 | 0.00 | 54 | 1009.9 |
| 20260508135013 | 55 | 170 | 3.0 | 7.0 | 0.00 | 0.00 | 0.00 | 56 | 1010.0 |
| 20260508134532 | 54 | 136 | 3.0 | 7.0 | 0.00 | 0.00 | 0.00 | 59 | 1010.0 |
| 20260508134010 | 53 | 132 | 2.0 | 7.0 | 0.00 | 0.00 | 0.00 | 57 | 1010.0 |
| 20260508133514 | 53 | 196 | 4.0 | 8.0 | 0.00 | 0.00 | 0.00 | 59 | 1010.1 |
| 20260508133034 | 52 | 159 | 2.0 | 8.0 | 0.00 | 0.00 | 0.00 | 60 | 1010.0 |
| 20260508132512 | 51 | 146 | 4.0 | 8.0 | 0.00 | 0.00 | 0.00 | 64 | 1010.0 |
| 20260508132013 | 50 | 200 | 3.0 | 8.0 | 0.00 | 0.00 | 0.00 | 63 | 1010.1 |
| 20260508131529 | 49 | 148 | 3.0 | 7.0 | 0.00 | 0.00 | 0.00 | 67 | 1010.1 |
| 20260508131014 | 48 | 178 | 2.0 | 6.0 | 0.00 | 0.00 | 0.00 | 71 | 1010.1 |
| 20260508130514 | 47 | 126 | 2.0 | 6.0 | 0.00 | 0.00 | 0.00 | 71 | 1010.1 |
| 20260508130027 | 47 | 159 | 2.0 | 6.0 | 0.00 | 0.00 | 0.00 | 72 | 1010.2 |
| 20260508125511 | 46 | 164 | 1.0 | 4.0 | 0.00 | 0.00 | 0.00 | 73 | 1010.1 |
| 20260508125014 | 45 | 170 | 2.0 | 6.0 | 0.00 | 0.00 | 0.00 | 74 | 1010.1 |
| 20260508124530 | 44 | 161 | 1.0 | 6.0 | 0.00 | 0.00 | 0.00 | 77 | 1010.2 |
| 20260508124014 | 44 | 157 | 3.0 | 6.0 | 0.00 | 0.00 | 0.00 | 78 | 1010.1 |
| 20260508123513 | 43 | 197 | 0.0 | 2.0 | 0.00 | 0.00 | 0.00 | 81 | 1010.2 |
| 20260508123030 | 42 | 0 | 0.0 | 4.0 | 0.00 | 0.00 | 0.00 | 82 | 1010.2 |
| 20260508122511 | 41 | 0 | 0.0 | 4.0 | 0.00 | 0.00 | 0.00 | 84 | 1010.2 |
| 20260508122018 | 40 | 229 | 1.0 | 4.0 | 0.00 | 0.00 | 0.00 | 85 | 1010.2 |
| 20260508121529 | 40 | 0 | 0.0 | 2.0 | 0.00 | 0.00 | 0.00 | 87 | 1010.2 |
| 20260508121051 | 39 | 0 | 0.0 | 4.0 | 0.00 | 0.00 | 0.00 | 88 | 1010.2 |
| 20260508120515 | 38 | 0 | 1.0 | 4.0 | 0.00 | 0.00 | 0.00 | 89 | 1010.2 |
| 20260508120031 | 38 | 0 | 0.0 | 3.0 | 0.00 | 0.00 | 0.00 | 90 | 1010.2 |
| 20260508115515 | 37 | 176 | 1.0 | 5.0 | 0.00 | 0.00 | 0.00 | 90 | 1010.2 |
| 20260508115014 | 36 | 0 | 1.0 | 5.0 | 0.00 | 0.00 | 0.00 | 91 | 1010.1 |
| 20260508114530 | 35 | 196 | 0.0 | 3.0 | 0.00 | 0.00 | 0.00 | 91 | 1010.1 |
| 20260508114014 | 35 | 195 | 1.0 | 3.0 | 0.00 | 0.00 | 0.00 | 90 | 1010.1 |
| 20260508113515 | 35 | 185 | 0.0 | 3.0 | 0.00 | 0.00 | 0.00 | 90 | 1010.2 |
| 20260508113033 | 34 | 207 | 0.0 | 3.0 | 0.00 | 0.00 | 0.00 | 90 | 1010.2 |
| 20260508112514 | 34 | 200 | 1.0 | 3.0 | 0.00 | 0.00 | 0.00 | 91 | 1010.2 |
| 20260508112014 | 33 | 205 | 1.0 | 3.0 | 0.00 | 0.00 | 0.00 | 90 | 1010.1 |
| 20260508111533 | 33 | 175 | 1.0 | 3.0 | 0.00 | 0.00 | 0.00 | 90 | 1010.1 |
| 20260508111016 | 32 | 229 | 0.0 | 3.0 | 0.00 | 0.00 | 0.00 | 89 | 1010.1 |
| 20260508110515 | 32 | 0 | 0.0 | 0.0 | 0.00 | 0.00 | 0.00 | 89 | 1010.0 |
| 20260508110032 | 32 | 0 | 0.0 | 0.0 | 0.00 | 0.00 | 0.00 | 87 | 1009.9 |
| 20260508105517 | 32 | 0 | 0.0 | 0.0 | 0.00 | 0.00 | 0.00 | 86 | 1010.0 |
| 20260508105014 | 32 | 0 | 0.0 | 0.0 | 0.00 | 0.00 | 0.00 | 86 | 1010.0 |
| 20260508104541 | 32 | 0 | 0.0 | 0.0 | 0.00 | 0.00 | 0.00 | 87 | 1010.0 |
| 20260508104015 | 33 | 0 | 0.0 | 0.0 | 0.00 | 0.00 | 0.00 | 86 | 1009.9 |
| 20260508103515 | 33 | 0 | 0.0 | 0.0 | 0.00 | 0.00 | 0.00 | 86 | 1010.0 |
| 20260508103042 | 33 | 0 | 0.0 | 2.0 | 0.00 | 0.00 | 0.00 | 87 | 1010.0 |
| 20260508102515 | 33 | 0 | 0.0 | 2.0 | 0.00 | 0.00 | 0.00 | 87 | 1010.1 |
| 20260508102016 | 33 | 0 | 0.0 | 3.0 | 0.00 | 0.00 | 0.00 | 87 | 1010.0 |
| 20260508101532 | 33 | 239 | 1.0 | 3.0 | 0.00 | 0.00 | 0.00 | 87 | 1010.1 |
| 20260508101014 | 33 | 234 | 1.0 | 3.0 | 0.00 | 0.00 | 0.00 | 87 | 1010.1 |
| 20260508100514 | 33 | 0 | 0.0 | 2.0 | 0.00 | 0.00 | 0.00 | 86 | 1010.1 |
| 20260508100033 | 34 | 0 | 0.0 | 2.0 | 0.00 | 0.00 | 0.00 | 87 | 1010.2 |
| 20260508095515 | 34 | 0 | 0.0 | 2.0 | 0.00 | 0.00 | 0.00 | 87 | 1010.1 |